Location: Olda
(45.8833°N, 9.5500°E)
Time: 17:16:57
(UTC+00:00)

Helios 1A Rocket - Pass Details

Date: 03 March 2021
Orbit: 563 x 585 km, 98.3° (Epoch: 11 April)

Event Time Altitude Azimuth Distance (km) Brightness Sun altitude
Rises 17:38:24 0° 140° (SE) 2,769 6.0 -5.5°
Reaches altitude 10° 17:40:43 10° 130° (SE) 1,872 5.1 -5.9°
Maximum altitude 17:44:17 31° 68° (ENE) 1,016 3.7 -6.5°
Drops below altitude 10° 17:47:52 10° 6° (N) 1,875 5.5 -7.2°
Sets 17:50:10 0° 356° (N) 2,774 6.4 -7.6°
